Find Kosmos-1948

NORAD ID: 19165 Int'l Des: 1988-043 Owner: UNKS Country: SU Constellation: GLONASS operational
MEOCIRCULAR

Live Position

Loading 3D Globe...

About Kosmos-1948

Description loading...

Upcoming Passes

Passes for default location (London). Set your location on the main map for personalized predictions.

Altitude History

Loading altitude history...

Two-Line Element Set

1 19165U 88043C 26105.08766424 .00000036 00000-0 00000+0 0 9994
2 19165 64.9215 75.4797 0004871 313.9487 141.5990 2.13102714294662
Epoch: Apr 15, 2026 • Age: 63 hours

Current Status

Altitude 19134.9 km
Velocity 3.95 km/s
Sub-Earth Point -47.88°S, 56.13°W
Launch Date May 21, 1988
Age 37.9 years
Type other

Technical Details

Classification Payload
Mass 1300.00 kg
Dry Mass 1200.00 kg
Total Mass 1300.00 kg
Length 4.00 m
Diameter 1.50 m
Span 7.80 m
Shape Cyl + Ant + 2 Pan
Manufacturer OAZ
Bus Type Uragan
Phase Status In Orbit
Owner/State UNKS/SU

Most Searched